�������l�o���
Date,Time,MP-1(��Sv/h),MP-2(��Sv/h),MP-3(��Sv/h),MP-4(��Sv/h),MP-5(��Sv/h),MP-6(��Sv/h),MP-7(��Sv/h),MP-8(��Sv/h),����,����(m/s),���J
2019/06/24,00:00,0.750,1.066,0.725,1.309,0.962,0.428,0.744,0.706,�k��,2.3,��
2019/06/24,00:10,0.751,1.066,0.726,1.308,0.964,0.428,0.742,0.707,�k�k��,2.5,��
2019/06/24,00:20,0.749,1.064,0.726,1.306,0.964,0.426,0.744,0.706,�k�k��,2.3,��
2019/06/24,00:30,0.749,1.068,0.727,1.309,0.964,0.428,0.744,0.705,�k�k��,2.2,��
2019/06/24,00:40,0.752,1.067,0.724,1.310,0.964,0.429,0.742,0.706,�k�k��,3.2,��
2019/06/24,00:50,0.749,1.065,0.725,1.306,0.965,0.429,0.744,0.708,�k,3.6,��
2019/06/24,01:00,0.751,1.064,0.725,1.308,0.962,0.427,0.743,0.707,�k,3.1,��
2019/06/24,01:10,0.753,1.065,0.727,1.308,0.963,0.428,0.743,0.709,�k,2.8,��
2019/06/24,01:20,0.751,1.065,0.725,1.309,0.963,0.428,0.744,0.705,�k�k��,3.4,��
2019/06/24,01:30,0.749,1.064,0.725,1.310,0.964,0.427,0.742,0.707,�k�k��,3.1,��
2019/06/24,01:40,0.752,1.063,0.725,1.311,0.964,0.428,0.744,0.706,�k�k��,2.6,��
2019/06/24,01:50,0.750,1.066,0.726,1.308,0.962,0.429,0.743,0.707,�k,2.6,��
2019/06/24,02:00,0.749,1.067,0.725,1.309,0.963,0.427,0.741,0.707,�k�k��,2.6,��
2019/06/24,02:10,0.749,1.064,0.725,1.310,0.962,0.427,0.742,0.708,�k�k��,3.1,��
2019/06/24,02:20,0.750,1.065,0.726,1.308,0.961,0.427,0.742,0.707,�k�k��,2.6,��
2019/06/24,02:30,0.751,1.066,0.724,1.310,0.960,0.427,0.741,0.707,�k�k��,2.3,��
2019/06/24,02:40,0.751,1.065,0.726,1.310,0.966,0.428,0.744,0.707,�k�k��,2.6,��
2019/06/24,02:50,0.750,1.069,0.724,1.313,0.964,0.427,0.743,0.706,�k�k��,2.8,��
2019/06/24,03:00,0.751,1.065,0.725,1.310,0.964,0.428,0.743,0.707,�k�k��,2.8,��
2019/06/24,03:10,0.749,1.065,0.723,1.309,0.962,0.427,0.745,0.708,�k��,3.0,��
2019/06/24,03:20,0.749,1.064,0.724,1.308,0.965,0.426,0.744,0.706,���k��,3.1,��
2019/06/24,03:30,0.750,1.064,0.726,1.311,0.960,0.427,0.743,0.708,���k��,2.5,��
2019/06/24,03:40,0.751,1.064,0.725,1.309,0.963,0.427,0.744,0.707,���k��,2.5,��
2019/06/24,03:50,0.749,1.067,0.725,1.310,0.963,0.425,0.742,0.706,���k��,2.8,��
2019/06/24,04:00,0.749,1.064,0.726,1.310,0.964,0.426,0.743,0.708,���k��,3.0,��
2019/06/24,04:10,0.748,1.066,0.726,1.308,0.963,0.427,0.741,0.708,���k��,3.0,��
2019/06/24,04:20,0.748,1.067,0.724,1.310,0.963,0.428,0.744,0.707,���k��,3.4,��
2019/06/24,04:30,0.749,1.067,0.725,1.307,0.961,0.426,0.742,0.708,���k��,3.0,��
2019/06/24,04:40,0.749,1.067,0.727,1.308,0.964,0.426,0.744,0.706,���k��,2.9,��
2019/06/24,04:50,0.748,1.066,0.727,1.311,0.961,0.427,0.743,0.706,���k��,2.9,��
2019/06/24,05:00,0.749,1.065,0.724,1.308,0.963,0.428,0.742,0.705,���k��,2.9,�L
2019/06/24,05:10,0.749,1.066,0.724,1.309,0.963,0.427,0.744,0.708,�k��,2.9,��
2019/06/24,05:20,0.748,1.065,0.727,1.309,0.964,0.429,0.742,0.707,���k��,2.6,��
2019/06/24,05:30,0.750,1.066,0.725,1.308,0.962,0.428,0.743,0.709,���k��,3.2,��
2019/06/24,05:40,0.748,1.064,0.725,1.308,0.961,0.429,0.744,0.706,���k��,3.1,��
2019/06/24,05:50,0.748,1.067,0.725,1.311,0.965,0.427,0.743,0.707,���k��,2.8,��
2019/06/24,06:00,0.748,1.067,0.727,1.309,0.964,0.428,0.743,0.707,���k��,2.0,�L
2019/06/24,06:10,0.748,1.067,0.726,1.308,0.965,0.426,0.743,0.707,�k��,2.0,�L
2019/06/24,06:20,0.750,1.065,0.727,1.310,0.963,0.428,0.742,0.708,�k��,2.5,�L
2019/06/24,06:30,0.748,1.066,0.727,1.310,0.962,0.429,0.744,0.707,�k��,2.6,�L
2019/06/24,06:40,0.748,1.067,0.726,1.310,0.963,0.429,0.744,0.706,�k��,2.8,�L
2019/06/24,06:50,0.748,1.067,0.727,1.310,0.965,0.429,0.744,0.707,�k��,3.1,�L
2019/06/24,07:00,0.749,1.063,0.728,1.309,0.961,0.429,0.745,0.706,�k��,3.1,�L
2019/06/24,07:10,0.749,1.065,0.725,1.310,0.961,0.429,0.744,0.705,�k��,3.5,�L
2019/06/24,07:20,0.749,1.062,0.726,1.310,0.964,0.430,0.743,0.703,�k��,2.9,�L
2019/06/24,07:30,0.748,1.062,0.726,1.311,0.962,0.429,0.742,0.703,�k�k��,3.3,�L
2019/06/24,07:40,0.748,1.062,0.725,1.311,0.961,0.431,0.743,0.703,�k�k��,3.9,�L
2019/06/24,07:50,0.746,1.062,0.724,1.307,0.962,0.430,0.742,0.704,�k�k��,3.9,�L
2019/06/24,08:00,0.749,1.062,0.724,1.306,0.960,0.429,0.743,0.704,�k��,4.0,�L
2019/06/24,08:10,0.748,1.063,0.724,1.309,0.961,0.429,0.742,0.705,�k�k��,4.4,�L
2019/06/24,08:20,0.748,1.059,0.724,1.309,0.962,0.429,0.742,0.706,�k�k��,4.4,�L
2019/06/24,08:30,0.746,1.059,0.724,1.309,0.960,0.428,0.743,0.704,�k�k��,3.9,�L
2019/06/24,08:40,0.746,1.060,0.722,1.309,0.960,0.429,0.742,0.704,�k�k��,4.1,�L
2019/06/24,08:50,0.746,1.057,0.724,1.306,0.960,0.428,0.741,0.704,�k�k��,4.2,�L
2019/06/24,09:00,0.746,1.055,0.723,1.306,0.956,0.428,0.742,0.704,�k�k��,4.7,�L
2019/06/24,09:10,0.746,1.054,0.726,1.306,0.954,0.427,0.741,0.704,�k�k��,4.2,�L
2019/06/24,09:20,0.744,1.047,0.723,1.305,0.953,0.427,0.742,0.702,�k�k��,4.2,�L
2019/06/24,09:30,0.745,1.050,0.723,1.306,0.952,0.427,0.741,0.702,�k�k��,4.3,�L
2019/06/24,09:40,0.742,1.051,0.721,1.305,0.953,0.429,0.740,0.701,�k�k��,4.4,�L
2019/06/24,09:50,0.746,1.047,0.719,1.303,0.952,0.427,0.740,0.702,�k�k��,4.4,�L
2019/06/24,10:00,0.744,1.046,0.719,1.303,0.952,0.427,0.739,0.701,�k�k��,4.6,�L
2019/06/24,10:10,0.743,1.048,0.721,1.304,0.952,0.427,0.740,0.702,�k�k��,3.9,�L
2019/06/24,10:20,0.742,1.048,0.719,1.303,0.949,0.427,0.741,0.701,�k,4.1,�L
2019/06/24,10:30,0.742,1.047,0.722,1.302,0.951,0.426,0.740,0.703,�k�k��,5.7,�L
2019/06/24,10:40,0.743,1.047,0.721,1.301,0.949,0.426,0.740,0.705,�k�k��,5.7,�L
2019/06/24,10:50,0.740,1.048,0.719,1.302,0.950,0.427,0.739,0.705,�k�k��,6.5,�L
2019/06/24,11:00,0.740,1.045,0.720,1.301,0.949,0.428,0.738,0.703,�k�k��,6.9,�L
2019/06/24,11:10,0.742,1.042,0.718,1.302,0.947,0.426,0.738,0.702,�k,6.5,�L
2019/06/24,11:20,0.739,1.040,0.719,1.300,0.947,0.426,0.738,0.701,�k,7.1,�L
2019/06/24,11:30,0.738,1.042,0.715,1.299,0.946,0.424,0.738,0.702,�k,7.2,�L
2019/06/24,11:40,0.739,1.040,0.717,1.297,0.945,0.423,0.739,0.701,�k,7.0,�L
2019/06/24,11:50,0.741,1.037,0.715,1.298,0.945,0.424,0.738,0.701,�k,7.0,�L
2019/06/24,12:00,0.738,1.042,0.714,1.296,0.944,0.423,0.738,0.701,�k,6.6,�L
2019/06/24,12:10,0.739,1.040,0.715,1.295,0.942,0.423,0.736,0.701,�k,7.4,�L
2019/06/24,12:20,0.741,1.039,0.716,1.296,0.945,0.425,0.737,0.700,�k,7.6,�L
2019/06/24,12:30,0.741,1.040,0.717,1.298,0.943,0.423,0.737,0.701,�k�k��,6.7,�L
2019/06/24,12:40,0.739,1.040,0.714,1.295,0.943,0.422,0.737,0.700,�k,6.3,�L
2019/06/24,12:50,0.740,1.037,0.714,1.296,0.946,0.423,0.737,0.698,�k,5.8,�L
2019/06/24,13:00,0.740,1.041,0.715,1.292,0.943,0.424,0.737,0.700,�k,6.0,�L
2019/06/24,13:10,0.738,1.034,0.713,1.294,0.943,0.423,0.737,0.699,�k,6.3,�L
2019/06/24,13:20,0.739,1.036,0.716,1.295,0.941,0.422,0.738,0.698,�k�k��,7.8,�L
2019/06/24,13:30,0.736,1.033,0.714,1.294,0.940,0.422,0.738,0.699,�k�k��,6.7,�L
2019/06/24,13:40,0.735,1.031,0.714,1.292,0.941,0.423,0.736,0.698,�k,5.4,�L
2019/06/24,13:50,0.738,1.033,0.715,1.293,0.941,0.423,0.737,0.699,�k,5.4,�L
2019/06/24,14:00,0.736,1.031,0.714,1.292,0.940,0.423,0.736,0.699,�k,6.4,�L
2019/06/24,14:10,0.736,1.033,0.714,1.290,0.939,0.422,0.736,0.699,�k,6.9,�L
2019/06/24,14:20,0.732,1.027,0.712,1.287,0.934,0.424,0.735,0.698,-,CALM,�L
2019/06/24,14:30,0.732,1.022,0.708,1.280,0.932,0.421,0.735,0.696,�k�k��,5.3,�L
2019/06/24,14:40,0.732,1.020,0.708,1.278,0.930,0.421,0.731,0.697,�k��,6.0,�L
2019/06/24,14:50,0.731,1.016,0.709,1.270,0.927,0.420,0.731,0.696,�k�k��,6.0,�L
2019/06/24,15:00,0.729,1.014,0.705,1.271,0.930,0.420,0.732,0.695,�k,7.2,�L
2019/06/24,15:10,0.729,1.020,0.707,1.268,0.929,0.421,0.731,0.695,�k,6.4,�L
2019/06/24,15:20,0.732,1.018,0.705,1.269,0.929,0.421,0.731,0.696,�k�k��,5.9,�L
2019/06/24,15:30,0.728,1.020,0.705,1.271,0.931,0.420,0.731,0.696,�k,7.4,�L
2019/06/24,15:40,0.730,1.020,0.703,1.270,0.931,0.421,0.730,0.697,�k,6.9,�L
2019/06/24,15:50,0.729,1.020,0.704,1.272,0.931,0.418,0.730,0.695,�k,6.3,�L
2019/06/24,16:00,0.729,1.020,0.705,1.273,0.929,0.421,0.734,0.695,�k,4.6,�L
2019/06/24,16:10,0.728,1.024,0.705,1.273,0.933,0.420,0.730,0.696,�k,4.6,�L
2019/06/24,16:20,0.730,1.025,0.706,1.274,0.932,0.418,0.732,0.694,�k,4.4,�L
2019/06/24,16:30,0.731,1.024,0.705,1.274,0.931,0.421,0.732,0.695,�k,4.6,�L
2019/06/24,16:40,0.729,1.026,0.704,1.275,0.932,0.422,0.732,0.696,�k,4.2,�L
2019/06/24,16:50,0.731,1.025,0.706,1.275,0.934,0.418,0.733,0.698,�k,4.6,�L
2019/06/24,17:00,0.731,1.026,0.708,1.276,0.932,0.421,0.732,0.696,�k,4.5,�L
2019/06/24,17:10,0.732,1.024,0.708,1.276,0.934,0.420,0.733,0.698,�k,4.0,�L
2019/06/24,17:20,0.728,1.026,0.707,1.274,0.932,0.421,0.734,0.697,�k,5.4,�L
2019/06/24,17:30,0.730,1.026,0.707,1.274,0.932,0.420,0.733,0.696,�k,4.2,�L
2019/06/24,17:40,0.730,1.027,0.707,1.274,0.933,0.421,0.733,0.696,�k,3.3,�L
2019/06/24,17:50,0.729,1.026,0.705,1.275,0.934,0.421,0.732,0.696,�k,4.1,��
2019/06/24,18:00,0.732,1.029,0.706,1.276,0.934,0.421,0.733,0.698,�k�k��,4.5,�L
2019/06/24,18:10,0.731,1.026,0.709,1.277,0.935,0.422,0.733,0.697,�k,4.1,�L
2019/06/24,18:20,0.731,1.028,0.705,1.278,0.934,0.422,0.734,0.697,�k,4.3,�L
2019/06/24,18:30,0.730,1.028,0.706,1.277,0.934,0.421,0.734,0.699,�k,4.5,�L
2019/06/24,18:40,0.733,1.026,0.709,1.275,0.936,0.422,0.733,0.696,�k,4.7,�L
2019/06/24,18:50,0.732,1.027,0.707,1.275,0.935,0.422,0.732,0.697,�k,5.3,�L
2019/06/24,19:00,0.731,1.029,0.707,1.276,0.934,0.422,0.732,0.698,�k,4.4,�L
2019/06/24,19:10,0.731,1.026,0.707,1.279,0.937,0.421,0.734,0.697,�k,4.6,�L
2019/06/24,19:20,0.730,1.026,0.706,1.278,0.935,0.422,0.734,0.698,�k,4.7,�L
2019/06/24,19:30,0.731,1.027,0.706,1.277,0.936,0.423,0.734,0.700,�k,5.4,��
2019/06/24,19:40,0.732,1.027,0.708,1.278,0.936,0.421,0.733,0.699,�k,5.3,��
2019/06/24,19:50,0.730,1.030,0.706,1.276,0.936,0.421,0.734,0.700,�k,4.1,��
2019/06/24,20:00,0.730,1.031,0.707,1.277,0.936,0.422,0.731,0.699,�k�k��,3.5,�L
2019/06/24,20:10,0.731,1.030,0.706,1.276,0.937,0.422,0.733,0.698,�k�k��,2.6,�L
2019/06/24,20:20,0.731,1.027,0.706,1.276,0.934,0.421,0.732,0.700,�k�k��,3.3,�L
2019/06/24,20:30,0.730,1.027,0.706,1.277,0.935,0.422,0.732,0.698,�k�k��,3.3,�L
2019/06/24,20:40,0.732,1.028,0.705,1.279,0.933,0.422,0.733,0.699,�k,2.6,�L
2019/06/24,20:50,0.729,1.026,0.705,1.278,0.936,0.421,0.733,0.699,�k,2.6,�L
2019/06/24,21:00,0.731,1.030,0.707,1.275,0.933,0.421,0.733,0.698,�k�k��,1.7,�L
2019/06/24,21:10,0.731,1.029,0.707,1.279,0.933,0.422,0.733,0.698,�k��,2.0,��
2019/06/24,21:20,0.729,1.028,0.705,1.279,0.935,0.422,0.733,0.698,�k��,2.2,��
2019/06/24,21:30,0.730,1.028,0.705,1.279,0.935,0.422,0.732,0.699,�k��,1.9,��
2019/06/24,21:40,0.731,1.030,0.706,1.278,0.935,0.422,0.734,0.700,�k,2.0,�L
2019/06/24,21:50,0.730,1.029,0.706,1.277,0.934,0.422,0.733,0.700,�k�k��,3.7,�L
2019/06/24,22:00,0.730,1.028,0.708,1.278,0.935,0.421,0.733,0.700,�k��,4.9,��
2019/06/24,22:10,0.730,1.028,0.706,1.278,0.937,0.421,0.734,0.699,�k��,4.6,�L
2019/06/24,22:20,0.729,1.028,0.707,1.276,0.935,0.422,0.734,0.698,�k�k��,4.1,�L
2019/06/24,22:30,0.731,1.030,0.706,1.277,0.935,0.422,0.733,0.697,�k,3.4,�L
2019/06/24,22:40,0.729,1.028,0.706,1.278,0.935,0.421,0.733,0.698,�k�k��,2.0,�L
2019/06/24,22:50,0.730,1.028,0.705,1.279,0.936,0.420,0.734,0.698,���k��,2.5,�L
2019/06/24,23:00,0.730,1.027,0.706,1.278,0.936,0.421,0.733,0.699,���k��,3.0,��
2019/06/24,23:10,0.730,1.027,0.706,1.277,0.936,0.422,0.736,0.699,���k��,2.6,��
2019/06/24,23:20,0.730,1.030,0.705,1.277,0.938,0.422,0.735,0.698,�k,1.9,��
2019/06/24,23:30,0.732,1.028,0.707,1.277,0.934,0.423,0.734,0.699,�k��,2.9,��
2019/06/24,23:40,0.731,1.028,0.707,1.278,0.938,0.423,0.734,0.698,���k��,2.0,��
2019/06/24,23:50,0.729,1.028,0.705,1.278,0.936,0.422,0.736,0.698,���k��,0.9,��
